| time (UTC) | temp C | wind direction | speed KPH | gust KPH | rain 1hr cm | rain 24hr cm | rain mn cm | humidity % | barometer mb |
| 20260505034516 | 10 | 205 | 1.6 | 4.8 | 0.00 | 0.00 | 0.00 | 45 | 1013.7 |
| 20260505033026 | 11 | 169 | 0.0 | 3.2 | 0.00 | 0.00 | 0.00 | 44 | 1013.7 |
| 20260505031511 | 11 | 115 | 1.6 | 17.7 | 0.00 | 0.00 | 0.00 | 45 | 1013.5 |
| 20260505030010 | 11 | 148 | 0.0 | 1.6 | 0.00 | 0.00 | 0.00 | 44 | 1013.3 |
| 20260505024527 | 12 | 29 | 0.0 | 6.4 | 0.00 | 0.00 | 0.00 | 44 | 1013.4 |
| 20260505023009 | 13 | 84 | 0.0 | 1.6 | 0.00 | 0.00 | 0.00 | 42 | 1013.2 |
| 20260505021526 | 13 | 105 | 0.0 | 6.4 | 0.00 | 0.00 | 0.00 | 43 | 1013.1 |
| 20260505020008 | 14 | 69 | 0.0 | 6.4 | 0.00 | 0.00 | 0.00 | 41 | 1012.9 |
| 20260505014508 | 14 | 346 | 0.0 | 4.8 | 0.00 | 0.00 | 0.00 | 41 | 1012.9 |
| 20260505013008 | 14 | 79 | 0.0 | 3.2 | 0.00 | 0.00 | 0.00 | 41 | 1012.9 |
| 20260505011508 | 14 | 75 | 1.6 | 11.3 | 0.00 | 0.00 | 0.00 | 41 | 1012.8 |
| 20260505010007 | 15 | 86 | 0.0 | 3.2 | 0.00 | 0.00 | 0.00 | 41 | 1012.8 |
| 20260505004514 | 15 | 37 | 0.0 | 3.2 | 0.00 | 0.00 | 0.00 | 41 | 1012.7 |
| 20260505001503 | 16 | 72 | 1.6 | 6.4 | 0.00 | 0.00 | 0.00 | 40 | 1012.6 |
| 20260504234559 | 17 | 309 | 4.8 | 16.1 | 0.00 | 0.00 | 0.00 | 39 | 1012.3 |
| 20260504231536 | 17 | 32 | 1.6 | 6.4 | 0.00 | 0.00 | 0.00 | 40 | 1012.4 |
| 20260504230113 | 16 | 68 | 3.2 | 11.3 | 0.00 | 0.00 | 0.00 | 40 | 1012.4 |
| 20260504224533 | 17 | 73 | 3.2 | 8.0 | 0.00 | 0.00 | 0.00 | 40 | 1012.3 |
| 20260504223036 | 16 | 94 | 3.2 | 8.0 | 0.00 | 0.00 | 0.00 | 39 | 1012.3 |
| 20260504221536 | 16 | 67 | 3.2 | 11.3 | 0.00 | 0.00 | 0.00 | 40 | 1012.3 |
| 20260504220032 | 17 | 68 | 1.6 | 9.7 | 0.00 | 0.00 | 0.00 | 39 | 1012.3 |
| 20260504214532 | 17 | 70 | 3.2 | 9.7 | 0.00 | 0.00 | 0.00 | 39 | 1012.2 |
| 20260504213030 | 17 | 84 | 3.2 | 6.4 | 0.00 | 0.00 | 0.00 | 41 | 1012.2 |
| 20260504211530 | 17 | 274 | 1.6 | 8.0 | 0.00 | 0.00 | 0.00 | 36 | 1012.2 |
| 20260504210031 | 17 | 102 | 1.6 | 4.8 | 0.00 | 0.00 | 0.00 | 38 | 1012.2 |
| 20260504204541 | 17 | 338 | 3.2 | 8.0 | 0.00 | 0.00 | 0.00 | 35 | 1012.2 |
| 20260504203029 | 17 | 74 | 0.0 | 4.8 | 0.00 | 0.00 | 0.00 | 38 | 1012.4 |
| 20260504201527 | 17 | 30 | 0.0 | 8.0 | 0.00 | 0.00 | 0.00 | 38 | 1012.4 |
| 20260504200027 | 17 | 84 | 4.8 | 11.3 | 0.00 | 0.00 | 0.00 | 35 | 1012.5 |
| 20260504194529 | 17 | 252 | 1.6 | 14.5 | 0.00 | 0.00 | 0.00 | 39 | 1012.5 |
| 20260504193025 | 17 | 230 | 3.2 | 9.7 | 0.00 | 0.00 | 0.00 | 38 | 1012.6 |
| 20260504191523 | 18 | 91 | 1.6 | 6.4 | 0.00 | 0.00 | 0.00 | 37 | 1012.7 |
| 20260504190025 | 17 | 72 | 4.8 | 11.3 | 0.00 | 0.00 | 0.00 | 37 | 1012.7 |
| 20260504184532 | 17 | 110 | 1.6 | 9.7 | 0.00 | 0.00 | 0.00 | 38 | 1012.9 |
| 20260504183021 | 17 | 274 | 1.6 | 6.4 | 0.00 | 0.00 | 0.00 | 38 | 1012.8 |
| 20260504181522 | 17 | 76 | 4.8 | 9.7 | 0.00 | 0.00 | 0.00 | 39 | 1013.0 |
| 20260504180018 | 17 | 65 | 3.2 | 9.7 | 0.00 | 0.00 | 0.00 | 39 | 1013.1 |
| 20260504174518 | 16 | 68 | 4.8 | 12.9 | 0.00 | 0.00 | 0.00 | 39 | 1013.1 |
| 20260504173017 | 16 | 340 | 4.8 | 11.3 | 0.00 | 0.00 | 0.00 | 38 | 1013.0 |
| 20260504171516 | 17 | 187 | 3.2 | 8.0 | 0.00 | 0.00 | 0.00 | 40 | 1013.0 |
| 20260504081555 | 8 | 34 | 1.6 | 8.0 | 0.00 | 0.00 | 0.00 | 78 | 1010.1 |
| 20260504044531 | 10 | 169 | 0.0 | 1.6 | 0.00 | 0.00 | 0.00 | 76 | 1008.7 |
| 20260504043039 | 11 | 141 | 0.0 | 0.0 | 0.00 | 0.00 | 0.00 | 75 | 1008.6 |
| 20260504041530 | 11 | 141 | 0.0 | 0.0 | 0.00 | 0.00 | 0.00 | 72 | 1008.7 |
| 20260504040030 | 12 | 216 | 0.0 | 4.8 | 0.00 | 0.00 | 0.00 | 70 | 1008.6 |